Regional Weather Roundup
Issued by NWS Northern Indiana

Home | Current Version | Previous Version | Text Only | Print | Product List | Glossary Off
Versions: 1 2 3 4 5 6 7 8 9 10 11 12 13 14 15 16 17 18 19 20 21 22 23 24 25 26 27 28 29 30 31 32 33 34 35 36 37 38 39 40 41 42 43 44 45 46 47 48 49 50

000
ASUS43 KIWX 250300
RWRIWX

KIWX WEATHER ROUNDUP
NATIONAL WEATHER SERVICE NORTHERN INDIANA
1100 PM EDT SUN SEP 24 2017

NOTE: "FAIR" INDICATES FEW OR NO CLOUDS BELOW 12,000 FEET WITH NO
SIGNIFICANT WEATHER AND/OR OBSTRUCTIONS TO VISIBILITY.

* THESE STATIONS ARE NOT UNDER NWS QUALITY CONTROL. THEY ALSO MAY NOT
  REPORT WEATHER SUCH AS PRECIPITATION OR FOG.

INZ001>027-250400-
NORTHERN INDIANA

CITY           SKY/WX    TMP DP  RH WIND       PRES   REMARKS
GARY*          CLEAR     66  63  88 CALM      30.03S
LAPORTE*       CLEAR     67  61  81 CALM      30.05S
KNOX*          CLEAR     64  61  88 CALM      30.04R
SOUTH BEND     CLEAR     67  61  81 CALM      30.05S
GOSHEN         CLEAR     65  59  81 CALM      30.06S
WARSAW*        CLEAR     68  59  73 SE3       30.06S
AUBURN*        CLEAR     72  61  68 E5        30.08S
FORT WAYNE     CLEAR     68  58  70 CALM      30.07S
PERU/GRISSOM   PTCLDY    71  55  57 SE6       30.04S

$$
INZ028>050-250400-
CENTRAL INDIANA

CITY           SKY/WX    TMP DP  RH WIND       PRES   REMARKS
LAFAYETTE      CLEAR     70  59  68 CALM      30.02S
KOKOMO*        PTCLDY    69  57  65 CALM      30.06S
MUNCIE*        CLEAR     62  58  86 CALM      30.07S
INDIANAPOLIS   PTCLDY    76  56  49 S3        30.05R

$$
MIZ043>046-050>051-056>058-064>065-071>073-077>080-250400-
SOUTHWEST LOWER MICHIGAN

CITY           SKY/WX    TMP DP  RH WIND       PRES   REMARKS
BATTLE CREEK   CLEAR     76  60  57 SE5       30.09R
BENTON HARBOR  CLEAR     67  61  81 E3        30.04S
COLDWATER*     CLEAR     73  60  64 SE3       30.09S
HILLSDALE*     MOCLDY    70  61  73 SE6       30.10S
HOLLAND        CLEAR     68  60  75 CALM      30.06S
GRAND RAPIDS   CLEAR     73  59  61 S6        30.06S
KALAMAZOO      CLEAR     70  59  68 CALM      30.08R
STURGIS*       CLEAR     74  60  63 E8        30.07S
THREE RIVERS*  FAIR      68  62  80 E3        30.07S

$$
OHZ001>008-015>018-024>025-250400-
NORTHWEST OHIO

CITY           SKY/WX    TMP DP  RH WIND       PRES   REMARKS
DEFIANCE       CLEAR     71  63  75 E5        30.08S
FINDLAY        PTCLDY    73  64  73 E3        30.07S
TOLEDO EXPRESS CLEAR     70  68  93 E3        30.08S
TOLEDO METCALF CLEAR     73  67  81 E6        30.09S
LIMA           CLEAR     67  60  78 NE6       30.08S

$$
AND FOR LAKE MICHIGAN COASTAL AND OPEN LAKE BUOY OBSERVATIONS

STATION/POSITION TEMP    WIND        PRES    VSBY  WAVE
                 AIR SEA DIR/SP/G                  HT/PER
                 (F)     (DEG/KT/KT) (MB)    (MI)  (FT/S)
CALUMET HARBOR    76     110/  2/  3 1016.1R
MICHIGAN CITY     77     120/  8/  9   N/A
BURNS HARBOR      82     140/  7/ 10 1017.3R
SAINT JOSEPH      76      CALM  /  1 1017.6
SOUTH LAKE BUOY   74 72   90/ 10/ 10 1016.7          0
4 MI NW BRIDGMAN  75 73  140/  4/  6 1016.7S         0
MICHIGAN CITY     75 73  150/  6/  6   N/A           0

$$
&&




USA.gov is the U.S. government's official web portal to all federal, state and local government web resources and services.